Regional Weather Roundup
Issued by NWS Little Rock, AR

Home | Current Version | Previous Version | Graphics & Text | Print | Product List | Glossary On
Versions: 1 2 3 4 5 6 7 8 9 10 11 12 13 14 15 16 17 18 19 20 21 22 23 24 25 26 27 28 29 30 31 32 33 34 35 36 37 38 39 40 41 42 43 44 45 46 47 48 49 50
000
ASUS44 KLZK 291905
RWRLZK

WEATHER ROUNDUP FOR ARKANSAS
NATIONAL WEATHER SERVICE LITTLE ROCK AR
200 PM CDT SUN MAR 29 2015

NOTE: "FAIR" INDICATES FEW OR NO CLOUDS BELOW 12,000 FEET WITH NO
SIGNIFICANT WEATHER AND/OR OBSTRUCTIONS TO VISIBILITY.

ARZ001-003-010-029-292000-
NORTHWEST ARKANSAS

CITY           SKY/WX    TMP DP  RH WIND       PRES   REMARKS
FAYETTEVILLE   SUNNY     64  46  52 SW8       30.03F
FORT SMITH     SUNNY     64  43  46 E12       30.02F
HARRISON       SUNNY     67  43  41 E6        30.01F
BENTONVILLE    MOSUNNY   66  43  42 W10       30.02F
ROGERS         MOSUNNY   66  44  45 SW6       30.02F
SILOAM SPGS    MOSUNNY   66  45  45 SW13      30.03F
HIGHFILL       MOSUNNY   67  43  41 SW8       30.01F
SPRINGDALE     MOSUNNY   64  45  48 SW15      30.04F
$$

ARZ004-005-016-292000-
NORTH CENTRAL ARKANSAS

CITY           SKY/WX    TMP DP  RH WIND       PRES   REMARKS
BATESVILLE     SUNNY     59  45  58 S9        30.09F
FLIPPIN        MOSUNNY   63  41  45 E7        30.03F
MTN HOME       MOSUNNY   62  42  47 SE8       30.03F
$$

ARZ040-041-292000-
WEST CENTRAL ARKANSAS

CITY           SKY/WX    TMP DP  RH WIND       PRES   REMARKS
MENA           SUNNY     72  46  40 SW9       30.04S
MOUNT IDA      SUNNY     66  47  50 S8        30.02F
$$

ARZ009-017-025-026-028-292000-
NORTHEAST ARKANSAS

CITY           SKY/WX    TMP DP  RH WIND       PRES   REMARKS
CORNING          N/A     54  41  62 S15G23    30.11F
JONESBORO      PTSUNNY   57  44  62 S15G24    30.11F
NEWPORT        PTSUNNY   56  46  69 S12G18    30.12F
BLYTHEVILLE    CLOUDY    56  40  55 S17       30.12F
$$

ARZ022-023-033-042-044-292000-
CENTRAL ARKANSAS

CITY           SKY/WX    TMP DP  RH WIND       PRES   REMARKS
LITTLE ROCK    SUNNY     69  46  43 SW7G16    30.08F
N LITTLE ROCK  SUNNY     63  51  65 S7G15     30.08F
JACKSONVILLE   SUNNY     62  49  61 SW8       30.07F
SEARCY         MOSUNNY   61  48  63 S14       30.10F
HOT SPRINGS    SUNNY     63  47  55 S5        30.07F
RUSSELLVILLE   SUNNY     63  47  55 CALM      30.05F
CLINTON        PTSUNNY   57  46  67 S5        30.09F
$$

ARZ036-292000-
EAST ARKANSAS

CITY           SKY/WX    TMP DP  RH WIND       PRES   REMARKS
WEST MEMPHIS   PTSUNNY   60  46  59 S17       30.12F
$$

ARZ050-053-066-070-073-292000-
SOUTHWEST ARKANSAS

CITY           SKY/WX    TMP DP  RH WIND       PRES   REMARKS
ARKADELPHIA    FAIR      74  56  53 SW12      30.06F
CAMDEN         SUNNY     79  50  36 MISG      30.07F
TEXARKANA      SUNNY     79  53  40 SW10      30.05F
EL DORADO      SUNNY     77  56  48 S10G22    30.08F
DE QUEEN       SUNNY     71  51  49 MISG      30.03F
$$

ARZ056-057-069-292000-
SOUTHEAST ARKANSAS

CITY           SKY/WX    TMP DP  RH WIND       PRES   REMARKS
PINE BLUFF     SUNNY     69  52  54 S12       30.09F
STUTTGART      SUNNY     63  48  59 S16       30.11F
MONTICELLO     SUNNY     72  52  49 SW13      30.10F

$$





USA.gov is the U.S. government's official web portal to all federal, state and local government web resources and services.